Location: B?lite?ti
(46.2833°N, 22.7333°E)
Time: 04:47:33
(UTC+00:00)

Cosmos 1898 Rocket - Pass Details

Date: 24 January 2021
Orbit: 754 x 783 km, 74.0° (Epoch: 26 February)

Event Time Altitude Azimuth Distance (km) Brightness Sun altitude
Rises 17:31:56 0° 211° (SSW) 3,237 7.2 -22.3°
Reaches altitude 10° 17:34:20 10° 215° (SW) 2,310 6.5 -22.7°
Maximum altitude 17:39:31 60° 295° (WNW) 879 4.0 -23.6°
Enters shadow 17:43:13 19° 11° (N) 1,758 5.2 -24.2°
